Year,Month,Day,Hour,Minute,Value (Times are PST for temperature in C)
2006,06,22,00,00,11.30
2006,06,22,00,01,11.30
2006,06,22,00,02,11.40
2006,06,22,00,03,11.40
2006,06,22,00,04,11.40
2006,06,22,00,05,11.40
2006,06,22,00,06,11.40
2006,06,22,00,07,11.40
2006,06,22,00,08,11.50
2006,06,22,00,09,11.50
2006,06,22,00,10,11.50
2006,06,22,00,11,11.50
2006,06,22,00,12,11.60
2006,06,22,00,13,11.60
2006,06,22,00,14,11.70
2006,06,22,00,15,11.70
2006,06,22,00,16,11.70
2006,06,22,00,17,11.70
2006,06,22,00,18,11.70
2006,06,22,00,19,11.70
2006,06,22,00,20,11.70
2006,06,22,00,21,11.70
2006,06,22,00,22,11.70
2006,06,22,00,23,11.70
2006,06,22,00,24,11.70
2006,06,22,00,25,11.70
2006,06,22,00,26,11.70
2006,06,22,00,27,11.70
2006,06,22,00,28,11.70
2006,06,22,00,29,11.70
2006,06,22,00,30,11.70
2006,06,22,00,31,11.70
2006,06,22,00,32,11.70
2006,06,22,00,33,11.70
2006,06,22,00,34,11.60
2006,06,22,00,35,11.60
2006,06,22,00,36,11.50
2006,06,22,00,37,11.50
2006,06,22,00,38,11.40
2006,06,22,00,39,11.30
2006,06,22,00,40,11.30
2006,06,22,00,41,11.30
2006,06,22,00,42,11.20
2006,06,22,00,43,11.20
2006,06,22,00,44,11.20
2006,06,22,00,45,11.20
2006,06,22,00,46,11.20
2006,06,22,00,47,11.20
2006,06,22,00,48,11.20
2006,06,22,00,49,11.20
2006,06,22,00,50,11.20
2006,06,22,00,51,11.20
2006,06,22,00,52,11.10
2006,06,22,00,53,11.10
2006,06,22,00,54,11.10
2006,06,22,00,55,11.00
2006,06,22,00,56,11.00
2006,06,22,00,57,10.90
2006,06,22,00,58,10.80
2006,06,22,00,59,10.70
2006,06,22,01,00,10.70
2006,06,22,01,01,10.60
2006,06,22,01,02,10.60
2006,06,22,01,03,10.60
2006,06,22,01,04,10.60
2006,06,22,01,05,10.50
2006,06,22,01,06,10.50
2006,06,22,01,07,10.40
2006,06,22,01,08,10.40
2006,06,22,01,09,10.40
2006,06,22,01,10,10.40
2006,06,22,01,11,10.40
2006,06,22,01,12,10.40
2006,06,22,01,13,10.40
2006,06,22,01,14,10.40
2006,06,22,01,15,10.50
2006,06,22,01,16,10.60
2006,06,22,01,17,10.70
2006,06,22,01,18,10.70
2006,06,22,01,19,10.70
2006,06,22,01,20,10.60
2006,06,22,01,21,10.50
2006,06,22,01,22,10.50
2006,06,22,01,23,10.40
2006,06,22,01,24,10.40
2006,06,22,01,25,10.30
2006,06,22,01,26,10.30
2006,06,22,01,27,10.30
2006,06,22,01,28,10.30
2006,06,22,01,29,10.30
2006,06,22,01,30,10.30
2006,06,22,01,31,10.30
2006,06,22,01,32,10.40
2006,06,22,01,33,10.40
2006,06,22,01,34,10.40
2006,06,22,01,35,10.40
2006,06,22,01,36,10.40
2006,06,22,01,37,10.50
2006,06,22,01,38,10.50
2006,06,22,01,39,10.60
2006,06,22,01,40,10.60
2006,06,22,01,41,10.60
2006,06,22,01,42,10.60
2006,06,22,01,43,10.60
2006,06,22,01,44,10.70
2006,06,22,01,45,10.70
2006,06,22,01,46,10.70
2006,06,22,01,47,10.70
2006,06,22,01,48,10.70
2006,06,22,01,49,10.60
2006,06,22,01,50,10.60
2006,06,22,01,51,10.60
2006,06,22,01,52,10.50
2006,06,22,01,53,10.50
2006,06,22,01,54,10.50
2006,06,22,01,55,10.40
2006,06,22,01,56,10.40
2006,06,22,01,57,10.40
2006,06,22,01,58,10.40
2006,06,22,01,59,10.40
2006,06,22,02,00,10.30
2006,06,22,02,01,10.30
2006,06,22,02,02,10.30
2006,06,22,02,03,10.30
2006,06,22,02,04,10.30
2006,06,22,02,05,10.20
2006,06,22,02,06,10.20
2006,06,22,02,07,10.10
2006,06,22,02,08,10.10
2006,06,22,02,09,10.00
2006,06,22,02,10,10.00
2006,06,22,02,11,9.90
2006,06,22,02,12,9.90
2006,06,22,02,13,9.90
2006,06,22,02,14,9.80
2006,06,22,02,15,9.80
2006,06,22,02,16,9.80
2006,06,22,02,17,9.80
2006,06,22,02,18,9.80
2006,06,22,02,19,9.80
2006,06,22,02,20,9.70
2006,06,22,02,21,9.70
2006,06,22,02,22,9.70
2006,06,22,02,23,9.70
2006,06,22,02,24,9.70
2006,06,22,02,25,9.70
2006,06,22,02,26,9.70
2006,06,22,02,27,9.70
2006,06,22,02,28,9.70
2006,06,22,02,29,9.70
2006,06,22,02,30,9.70
2006,06,22,02,31,9.70
2006,06,22,02,32,9.70
2006,06,22,02,33,9.70
2006,06,22,02,34,9.70
2006,06,22,02,35,9.70
2006,06,22,02,36,9.80
2006,06,22,02,37,9.80
2006,06,22,02,38,9.80
2006,06,22,02,39,9.80
2006,06,22,02,40,9.80
2006,06,22,02,41,9.70
2006,06,22,02,42,9.70
2006,06,22,02,43,9.70
2006,06,22,02,44,9.70
2006,06,22,02,45,9.70
2006,06,22,02,46,9.80
2006,06,22,02,47,9.80
2006,06,22,02,48,9.80
2006,06,22,02,49,9.80
2006,06,22,02,50,9.90
2006,06,22,02,51,9.90
2006,06,22,02,52,9.90
2006,06,22,02,53,9.90
2006,06,22,02,54,9.90
2006,06,22,02,55,9.90
2006,06,22,02,56,9.90
2006,06,22,02,57,9.80
2006,06,22,02,58,9.90
2006,06,22,02,59,9.90
2006,06,22,03,00,9.90
2006,06,22,03,01,9.90
2006,06,22,03,02,9.90
2006,06,22,03,03,9.90
2006,06,22,03,04,9.90
2006,06,22,03,05,10.00
2006,06,22,03,06,10.00
2006,06,22,03,07,10.00
2006,06,22,03,08,10.00
2006,06,22,03,09,10.00
2006,06,22,03,10,10.00
2006,06,22,03,11,9.90
2006,06,22,03,12,9.90
2006,06,22,03,13,9.90
2006,06,22,03,14,9.80
2006,06,22,03,15,9.80
2006,06,22,03,16,9.80
2006,06,22,03,17,9.90
2006,06,22,03,18,9.80
2006,06,22,03,19,9.80
2006,06,22,03,20,9.80
2006,06,22,03,21,9.90
2006,06,22,03,22,9.90
2006,06,22,03,23,9.90
2006,06,22,03,24,9.90
2006,06,22,03,25,9.90
2006,06,22,03,26,10.00
2006,06,22,03,27,10.00
2006,06,22,03,28,10.00
2006,06,22,03,29,9.90
2006,06,22,03,30,9.90
2006,06,22,03,31,9.90
2006,06,22,03,32,9.90
2006,06,22,03,33,9.80
2006,06,22,03,34,9.80
2006,06,22,03,35,9.80
2006,06,22,03,36,9.80
2006,06,22,03,37,9.80
2006,06,22,03,38,9.80
2006,06,22,03,39,9.70
2006,06,22,03,40,9.70
2006,06,22,03,41,9.70
2006,06,22,03,42,9.70
2006,06,22,03,43,9.70
2006,06,22,03,44,9.70
2006,06,22,03,45,9.70
2006,06,22,03,46,9.70
2006,06,22,03,47,9.60
2006,06,22,03,48,9.60
2006,06,22,03,49,9.60
2006,06,22,03,50,9.60
2006,06,22,03,51,9.70
2006,06,22,03,52,9.70
2006,06,22,03,53,9.70
2006,06,22,03,54,9.70
2006,06,22,03,55,9.70
2006,06,22,03,56,9.60
2006,06,22,03,57,9.60
2006,06,22,03,58,9.60
2006,06,22,03,59,9.60
2006,06,22,04,00,9.60
2006,06,22,04,01,9.60
2006,06,22,04,02,9.60
2006,06,22,04,03,9.50
2006,06,22,04,04,9.50
2006,06,22,04,05,9.50
2006,06,22,04,06,9.40
2006,06,22,04,07,9.40
2006,06,22,04,08,9.40
2006,06,22,04,09,9.40
2006,06,22,04,10,9.30
2006,06,22,04,11,9.30
2006,06,22,04,12,9.30
2006,06,22,04,13,9.30
2006,06,22,04,14,9.30
2006,06,22,04,15,9.30
2006,06,22,04,16,9.30
2006,06,22,04,17,9.30
2006,06,22,04,18,9.30
2006,06,22,04,19,9.20
2006,06,22,04,20,9.20
2006,06,22,04,21,9.20
2006,06,22,04,22,9.20
2006,06,22,04,23,9.20
2006,06,22,04,24,9.10
2006,06,22,04,25,9.10
2006,06,22,04,26,9.00
2006,06,22,04,27,9.00
2006,06,22,04,28,8.90
2006,06,22,04,29,8.90
2006,06,22,04,30,8.90
2006,06,22,04,31,8.90
2006,06,22,04,32,8.90
2006,06,22,04,33,8.90
2006,06,22,04,34,9.00
2006,06,22,04,35,8.90
2006,06,22,04,36,8.90
2006,06,22,04,37,8.90
2006,06,22,04,38,8.90
2006,06,22,04,39,8.90
2006,06,22,04,40,8.80
2006,06,22,04,41,8.90
2006,06,22,04,42,8.90
2006,06,22,04,43,8.90
2006,06,22,04,44,9.00
2006,06,22,04,45,9.00
2006,06,22,04,46,9.00
2006,06,22,04,47,9.00
2006,06,22,04,48,9.00
2006,06,22,04,49,9.00
2006,06,22,04,50,9.00
2006,06,22,04,51,8.90
2006,06,22,04,52,8.90
2006,06,22,04,53,8.90
2006,06,22,04,54,8.90
2006,06,22,04,55,9.00
2006,06,22,04,56,9.00
2006,06,22,04,57,9.00
2006,06,22,04,58,9.00
2006,06,22,04,59,8.90
2006,06,22,05,00,8.90
2006,06,22,05,01,8.90
2006,06,22,05,02,8.90
2006,06,22,05,03,8.90
2006,06,22,05,04,9.00
2006,06,22,05,05,9.00
2006,06,22,05,06,9.00
2006,06,22,05,07,9.00
2006,06,22,05,08,9.10
2006,06,22,05,09,9.00
2006,06,22,05,10,9.00
2006,06,22,05,11,9.10
2006,06,22,05,12,9.10
2006,06,22,05,13,9.00
2006,06,22,05,14,9.00
2006,06,22,05,15,9.00
2006,06,22,05,16,8.90
2006,06,22,05,17,8.90
2006,06,22,05,18,8.90
2006,06,22,05,19,8.80
2006,06,22,05,20,8.80
2006,06,22,05,21,8.70
2006,06,22,05,22,8.60
2006,06,22,05,23,8.60
2006,06,22,05,24,8.50
2006,06,22,05,25,8.40
2006,06,22,05,26,8.40
2006,06,22,05,27,8.40
2006,06,22,05,28,8.40
2006,06,22,05,29,8.50
2006,06,22,05,30,8.50
2006,06,22,05,31,8.50
2006,06,22,05,32,8.50
2006,06,22,05,33,8.60
2006,06,22,05,34,8.60
2006,06,22,05,35,8.60
2006,06,22,05,36,8.60
2006,06,22,05,37,8.60
2006,06,22,05,38,8.60
2006,06,22,05,39,8.60
2006,06,22,05,40,8.60
2006,06,22,05,41,8.60
2006,06,22,05,42,8.60
2006,06,22,05,43,8.60
2006,06,22,05,44,8.60
2006,06,22,05,45,8.60
2006,06,22,05,46,8.60
2006,06,22,05,47,8.60
2006,06,22,05,48,8.60
2006,06,22,05,49,8.60
2006,06,22,05,50,8.60
2006,06,22,05,51,8.60
2006,06,22,05,52,8.60
2006,06,22,05,53,8.60
2006,06,22,05,54,8.70
2006,06,22,05,55,8.70
2006,06,22,05,56,8.70
2006,06,22,05,57,8.70
2006,06,22,05,58,8.70
2006,06,22,05,59,8.70
2006,06,22,06,00,8.70
2006,06,22,06,01,8.70
2006,06,22,06,02,8.70
2006,06,22,06,03,8.70
2006,06,22,06,04,8.70
2006,06,22,06,05,8.70
2006,06,22,06,06,8.70
2006,06,22,06,07,8.70
2006,06,22,06,08,8.70
2006,06,22,06,09,8.80
2006,06,22,06,10,8.80
2006,06,22,06,11,8.80
2006,06,22,06,12,8.80
2006,06,22,06,13,8.80
2006,06,22,06,14,8.80
2006,06,22,06,15,8.80
2006,06,22,06,16,8.80
2006,06,22,06,17,8.80
2006,06,22,06,18,8.80
2006,06,22,06,19,8.80
2006,06,22,06,20,8.80
2006,06,22,06,21,8.80
2006,06,22,06,22,8.80
2006,06,22,06,23,8.80
2006,06,22,06,24,8.80
2006,06,22,06,25,8.80
2006,06,22,06,26,8.80
2006,06,22,06,27,8.90
2006,06,22,06,28,8.90
2006,06,22,06,29,8.90
2006,06,22,06,30,8.90
2006,06,22,06,31,8.90
2006,06,22,06,32,8.90
2006,06,22,06,33,8.90
2006,06,22,06,34,8.90
2006,06,22,06,35,8.90
2006,06,22,06,36,8.90
2006,06,22,06,37,8.90
2006,06,22,06,38,8.90
2006,06,22,06,39,8.90
2006,06,22,06,40,8.90
2006,06,22,06,41,8.90
2006,06,22,06,42,8.90
2006,06,22,06,43,8.90
2006,06,22,06,44,8.90
2006,06,22,06,45,8.90
2006,06,22,06,46,8.90
2006,06,22,06,47,9.00
2006,06,22,06,48,9.00
2006,06,22,06,49,9.10
2006,06,22,06,50,9.10
2006,06,22,06,51,9.10
2006,06,22,06,52,9.20
2006,06,22,06,53,9.20
2006,06,22,06,54,9.20
2006,06,22,06,55,9.30
2006,06,22,06,56,9.30
2006,06,22,06,57,9.30
2006,06,22,06,58,9.40
2006,06,22,06,59,9.40
2006,06,22,07,00,9.50
2006,06,22,07,01,9.60
2006,06,22,07,02,9.60
2006,06,22,07,03,9.70
2006,06,22,07,04,9.70
2006,06,22,07,05,9.80
2006,06,22,07,06,9.90
2006,06,22,07,07,10.00
2006,06,22,07,08,10.10
2006,06,22,07,09,10.10
2006,06,22,07,10,10.20
2006,06,22,07,11,10.30
2006,06,22,07,12,10.40
2006,06,22,07,13,10.40
2006,06,22,07,14,10.50
2006,06,22,07,15,10.60
2006,06,22,07,16,10.60
2006,06,22,07,17,10.70
2006,06,22,07,18,10.70
2006,06,22,07,19,10.80
2006,06,22,07,20,10.80
2006,06,22,07,21,10.80
2006,06,22,07,22,10.80
2006,06,22,07,23,10.80
2006,06,22,07,24,10.80
2006,06,22,07,25,10.80
2006,06,22,07,26,10.90
2006,06,22,07,27,10.90
2006,06,22,07,28,10.90
2006,06,22,07,29,10.90
2006,06,22,07,30,10.90
2006,06,22,07,31,10.80
2006,06,22,07,32,10.80
2006,06,22,07,33,10.90
2006,06,22,07,34,10.90
2006,06,22,07,35,10.90
2006,06,22,07,36,10.90
2006,06,22,07,37,10.90
2006,06,22,07,38,11.00
2006,06,22,07,39,11.00
2006,06,22,07,40,11.00
2006,06,22,07,41,11.10
2006,06,22,07,42,11.10
2006,06,22,07,43,11.20
2006,06,22,07,44,11.30
2006,06,22,07,45,11.30
2006,06,22,07,46,11.40
2006,06,22,07,47,11.40
2006,06,22,07,48,11.50
2006,06,22,07,49,11.50
2006,06,22,07,50,11.60
2006,06,22,07,51,11.60
2006,06,22,07,52,11.60
2006,06,22,07,53,11.70
2006,06,22,07,54,11.70
2006,06,22,07,55,11.70
2006,06,22,07,56,11.70
2006,06,22,07,57,11.70
2006,06,22,07,58,11.70
2006,06,22,07,59,11.70
2006,06,22,08,00,11.70
2006,06,22,08,01,11.70
2006,06,22,08,02,11.70
2006,06,22,08,03,11.70
2006,06,22,08,04,11.70
2006,06,22,08,05,11.70
2006,06,22,08,06,11.70
2006,06,22,08,07,11.70
2006,06,22,08,08,11.70
2006,06,22,08,09,11.70
2006,06,22,08,10,11.70
2006,06,22,08,11,11.70
2006,06,22,08,12,11.80
2006,06,22,08,13,11.80
2006,06,22,08,14,11.80
2006,06,22,08,15,11.80
2006,06,22,08,16,11.80
2006,06,22,08,17,11.80
2006,06,22,08,18,11.90
2006,06,22,08,19,12.00
2006,06,22,08,20,12.10
2006,06,22,08,21,12.10
2006,06,22,08,22,12.10
2006,06,22,08,23,12.10
2006,06,22,08,24,12.10
2006,06,22,08,25,12.10
2006,06,22,08,26,12.00
2006,06,22,08,27,12.10
2006,06,22,08,28,12.10
2006,06,22,08,29,12.10
2006,06,22,08,30,12.10
2006,06,22,08,31,12.20
2006,06,22,08,32,12.30
2006,06,22,08,33,12.40
2006,06,22,08,34,12.50
2006,06,22,08,35,12.60
2006,06,22,08,36,12.70
2006,06,22,08,37,12.80
2006,06,22,08,38,12.80
2006,06,22,08,39,12.90
2006,06,22,08,40,13.00
2006,06,22,08,41,13.10
2006,06,22,08,42,13.10
2006,06,22,08,43,13.20
2006,06,22,08,44,13.20
2006,06,22,08,45,13.20
2006,06,22,08,46,13.20
2006,06,22,08,47,13.20
2006,06,22,08,48,13.20
2006,06,22,08,49,13.20
2006,06,22,08,50,13.20
2006,06,22,08,51,13.20
2006,06,22,08,52,13.30
2006,06,22,08,53,13.30
2006,06,22,08,54,13.40
2006,06,22,08,55,13.50
2006,06,22,08,56,13.60
2006,06,22,08,57,13.70
2006,06,22,08,58,13.80
2006,06,22,08,59,13.80
2006,06,22,09,00,13.90
2006,06,22,09,01,14.00
2006,06,22,09,02,14.00
2006,06,22,09,03,14.10
2006,06,22,09,04,14.20
2006,06,22,09,05,14.30
2006,06,22,09,06,14.40
2006,06,22,09,07,14.50
2006,06,22,09,08,14.70
2006,06,22,09,09,14.70
2006,06,22,09,10,14.80
2006,06,22,09,11,14.80
2006,06,22,09,12,14.90
2006,06,22,09,13,15.00
2006,06,22,09,14,15.00
2006,06,22,09,15,15.00
2006,06,22,09,16,15.00
2006,06,22,09,17,15.00
2006,06,22,09,18,15.00
2006,06,22,09,19,15.00
2006,06,22,09,20,15.00
2006,06,22,09,21,14.80
2006,06,22,09,22,14.80
2006,06,22,09,23,14.70
2006,06,22,09,24,14.70
2006,06,22,09,25,14.70
2006,06,22,09,26,14.70
2006,06,22,09,27,14.70
2006,06,22,09,28,14.70
2006,06,22,09,29,14.70
2006,06,22,09,30,14.70
2006,06,22,09,31,14.80
2006,06,22,09,32,14.80
2006,06,22,09,33,14.90
2006,06,22,09,34,14.90
2006,06,22,09,35,14.80
2006,06,22,09,36,14.90
2006,06,22,09,37,14.90
2006,06,22,09,38,14.90
2006,06,22,09,39,15.00
2006,06,22,09,40,15.00
2006,06,22,09,41,15.00
2006,06,22,09,42,15.00
2006,06,22,09,43,15.00
2006,06,22,09,44,15.10
2006,06,22,09,45,15.20
2006,06,22,09,46,15.30
2006,06,22,09,47,15.40
2006,06,22,09,48,15.40
2006,06,22,09,49,15.30
2006,06,22,09,50,15.30
2006,06,22,09,51,15.30
2006,06,22,09,52,15.40
2006,06,22,09,53,15.40
2006,06,22,09,54,15.50
2006,06,22,09,55,15.50
2006,06,22,09,56,15.50
2006,06,22,09,57,15.50
2006,06,22,09,58,15.60
2006,06,22,09,59,15.70
2006,06,22,10,00,15.70
2006,06,22,10,01,15.60
2006,06,22,10,02,15.50
2006,06,22,10,03,15.40
2006,06,22,10,04,15.40
2006,06,22,10,05,15.40
2006,06,22,10,06,15.40
2006,06,22,10,07,15.40
2006,06,22,10,08,15.50
2006,06,22,10,09,15.60
2006,06,22,10,10,15.60
2006,06,22,10,11,15.70
2006,06,22,10,12,15.70
2006,06,22,10,13,15.80
2006,06,22,10,14,15.90
2006,06,22,10,15,15.90
2006,06,22,10,16,15.90
2006,06,22,10,17,16.00
2006,06,22,10,18,16.00
2006,06,22,10,19,16.10
2006,06,22,10,20,16.10
2006,06,22,10,21,16.20
2006,06,22,10,22,16.20
2006,06,22,10,23,16.20
2006,06,22,10,24,16.30
2006,06,22,10,25,16.20
2006,06,22,10,26,16.30
2006,06,22,10,27,16.40
2006,06,22,10,28,16.60
2006,06,22,10,29,16.70
2006,06,22,10,30,16.70
2006,06,22,10,31,16.70
2006,06,22,10,32,16.80
2006,06,22,10,33,16.80
2006,06,22,10,34,16.80
2006,06,22,10,35,16.70
2006,06,22,10,36,16.60
2006,06,22,10,37,16.60
2006,06,22,10,38,16.50
2006,06,22,10,39,16.50
2006,06,22,10,40,16.60
2006,06,22,10,41,16.60
2006,06,22,10,42,16.60
2006,06,22,10,43,16.60
2006,06,22,10,44,16.60
2006,06,22,10,45,16.60
2006,06,22,10,46,16.50
2006,06,22,10,47,16.50
2006,06,22,10,48,16.50
2006,06,22,10,49,16.60
2006,06,22,10,50,16.70
2006,06,22,10,51,16.80
2006,06,22,10,52,17.00
2006,06,22,10,53,17.10
2006,06,22,10,54,17.20
2006,06,22,10,55,17.30
2006,06,22,10,56,17.40
2006,06,22,10,57,17.60
2006,06,22,10,58,17.70
2006,06,22,10,59,17.80
2006,06,22,11,00,17.90
2006,06,22,11,01,17.90
2006,06,22,11,02,17.90
2006,06,22,11,03,17.80
2006,06,22,11,04,17.70
2006,06,22,11,05,17.70
2006,06,22,11,06,17.70
2006,06,22,11,07,17.70
2006,06,22,11,08,17.60
2006,06,22,11,09,17.50
2006,06,22,11,10,17.50
2006,06,22,11,11,17.60
2006,06,22,11,12,17.60
2006,06,22,11,13,17.70
2006,06,22,11,14,17.80
2006,06,22,11,15,17.90
2006,06,22,11,16,18.00
2006,06,22,11,17,18.00
2006,06,22,11,18,17.90
2006,06,22,11,19,17.90
2006,06,22,11,20,18.00
2006,06,22,11,21,18.00
2006,06,22,11,22,18.10
2006,06,22,11,23,18.20
2006,06,22,11,24,18.40
2006,06,22,11,25,18.50
2006,06,22,11,26,18.70
2006,06,22,11,27,18.80
2006,06,22,11,28,18.90
2006,06,22,11,29,19.00
2006,06,22,11,30,19.00
2006,06,22,11,31,19.00
2006,06,22,11,32,19.00
2006,06,22,11,33,19.00
2006,06,22,11,34,19.00
2006,06,22,11,35,18.90
2006,06,22,11,36,18.90
2006,06,22,11,37,18.80
2006,06,22,11,38,18.80
2006,06,22,11,39,18.80
2006,06,22,11,40,18.70
2006,06,22,11,41,18.60
2006,06,22,11,42,18.60
2006,06,22,11,43,18.60
2006,06,22,11,44,18.80
2006,06,22,11,45,18.90
2006,06,22,11,46,18.90
2006,06,22,11,47,18.90
2006,06,22,11,48,19.00
2006,06,22,11,49,19.00
2006,06,22,11,50,19.10
2006,06,22,11,51,19.20
2006,06,22,11,52,19.10
2006,06,22,11,53,19.00
2006,06,22,11,54,18.90
2006,06,22,11,55,18.80
2006,06,22,11,56,18.80
2006,06,22,11,57,18.80
2006,06,22,11,58,18.80
2006,06,22,11,59,18.70
2006,06,22,12,00,18.60
2006,06,22,12,01,18.70
2006,06,22,12,02,18.80
2006,06,22,12,03,18.80
2006,06,22,12,04,18.80
2006,06,22,12,05,18.90
2006,06,22,12,06,18.90
2006,06,22,12,07,18.90
2006,06,22,12,08,18.90
2006,06,22,12,09,18.90
2006,06,22,12,10,19.00
2006,06,22,12,11,19.00
2006,06,22,12,12,19.00
2006,06,22,12,13,18.90
2006,06,22,12,14,19.00
2006,06,22,12,15,19.10
2006,06,22,12,16,19.10
2006,06,22,12,17,19.20
2006,06,22,12,18,19.40
2006,06,22,12,19,19.40
2006,06,22,12,20,19.40
2006,06,22,12,21,19.50
2006,06,22,12,22,19.50
2006,06,22,12,23,19.40
2006,06,22,12,24,19.50
2006,06,22,12,25,19.50
2006,06,22,12,26,19.40
2006,06,22,12,27,19.30
2006,06,22,12,28,19.10
2006,06,22,12,29,19.10
2006,06,22,12,30,19.10
2006,06,22,12,31,19.20
2006,06,22,12,32,19.30
2006,06,22,12,33,19.30
2006,06,22,12,34,19.30
2006,06,22,12,35,19.30
2006,06,22,12,36,19.30
2006,06,22,12,37,19.20
2006,06,22,12,38,19.20
2006,06,22,12,39,19.20
2006,06,22,12,40,19.20
2006,06,22,12,41,19.20
2006,06,22,12,42,19.30
2006,06,22,12,43,19.30
2006,06,22,12,44,19.40
2006,06,22,12,45,19.40
2006,06,22,12,46,19.40
2006,06,22,12,47,19.40
2006,06,22,12,48,19.40
2006,06,22,12,49,19.40
2006,06,22,12,50,19.40
2006,06,22,12,51,19.50
2006,06,22,12,52,19.50
2006,06,22,12,53,19.40
2006,06,22,12,54,19.50
2006,06,22,12,55,19.60
2006,06,22,12,56,19.60
2006,06,22,12,57,19.50
2006,06,22,12,58,19.50
2006,06,22,12,59,19.50
2006,06,22,13,00,19.40
2006,06,22,13,01,19.30
2006,06,22,13,02,19.20
2006,06,22,13,03,19.10
2006,06,22,13,04,19.00
2006,06,22,13,05,19.00
2006,06,22,13,06,19.00
2006,06,22,13,07,19.00
2006,06,22,13,08,18.90
2006,06,22,13,09,18.90
2006,06,22,13,10,19.00
2006,06,22,13,11,19.10
2006,06,22,13,12,19.20
2006,06,22,13,13,19.10
2006,06,22,13,14,19.10
2006,06,22,13,15,19.10
2006,06,22,13,16,19.10
2006,06,22,13,17,19.20
2006,06,22,13,18,19.30
2006,06,22,13,19,19.40
2006,06,22,13,20,19.60
2006,06,22,13,21,19.60
2006,06,22,13,22,19.60
2006,06,22,13,23,19.50
2006,06,22,13,24,19.40
2006,06,22,13,25,19.40
2006,06,22,13,26,19.50
2006,06,22,13,27,19.50
2006,06,22,13,28,19.50
2006,06,22,13,29,19.40
2006,06,22,13,30,19.50
2006,06,22,13,31,19.50
2006,06,22,13,32,19.60
2006,06,22,13,33,19.60
2006,06,22,13,34,19.60
2006,06,22,13,35,19.60
2006,06,22,13,36,19.70
2006,06,22,13,37,19.70
2006,06,22,13,38,19.60
2006,06,22,13,39,19.60
2006,06,22,13,40,19.50
2006,06,22,13,41,19.50
2006,06,22,13,42,19.40
2006,06,22,13,43,19.40
2006,06,22,13,44,19.30
2006,06,22,13,45,19.40
2006,06,22,13,46,19.40
2006,06,22,13,47,19.30
2006,06,22,13,48,19.30
2006,06,22,13,49,19.30
2006,06,22,13,50,19.30
2006,06,22,13,51,19.40
2006,06,22,13,52,19.40
2006,06,22,13,53,19.40
2006,06,22,13,54,19.40
2006,06,22,13,55,19.40
2006,06,22,13,56,19.40
2006,06,22,13,57,19.50
2006,06,22,13,58,19.60
2006,06,22,13,59,19.60
2006,06,22,14,00,19.70
2006,06,22,14,01,19.70
2006,06,22,14,02,19.60
2006,06,22,14,03,19.50
2006,06,22,14,04,19.40
2006,06,22,14,05,19.40
2006,06,22,14,06,19.50
2006,06,22,14,07,19.50
2006,06,22,14,08,19.40
2006,06,22,14,09,19.50
2006,06,22,14,10,19.50
2006,06,22,14,11,19.50
2006,06,22,14,12,19.50
2006,06,22,14,13,19.50
2006,06,22,14,14,19.70
2006,06,22,14,15,19.80
2006,06,22,14,16,19.90
2006,06,22,14,17,20.00
2006,06,22,14,18,20.00
2006,06,22,14,19,20.10
2006,06,22,14,20,20.20
2006,06,22,14,21,20.20
2006,06,22,14,22,20.30
2006,06,22,14,23,20.30
2006,06,22,14,24,20.40
2006,06,22,14,25,20.40
2006,06,22,14,26,20.30
2006,06,22,14,27,20.20
2006,06,22,14,28,20.20
2006,06,22,14,29,20.30
2006,06,22,14,30,20.40
2006,06,22,14,31,20.40
2006,06,22,14,32,20.40
2006,06,22,14,33,20.50
2006,06,22,14,34,20.50
2006,06,22,14,35,20.60
2006,06,22,14,36,20.70
2006,06,22,14,37,20.70
2006,06,22,14,38,20.60
2006,06,22,14,39,20.50
2006,06,22,14,40,20.40
2006,06,22,14,41,20.50
2006,06,22,14,42,20.50
2006,06,22,14,43,20.60
2006,06,22,14,44,20.80
2006,06,22,14,45,20.90
2006,06,22,14,46,20.90
2006,06,22,14,47,20.80
2006,06,22,14,48,20.80
2006,06,22,14,49,20.70
2006,06,22,14,50,20.70
2006,06,22,14,51,20.70
2006,06,22,14,52,20.60
2006,06,22,14,53,20.50
2006,06,22,14,54,20.50
2006,06,22,14,55,20.40
2006,06,22,14,56,20.50
2006,06,22,14,57,20.60
2006,06,22,14,58,20.60
2006,06,22,14,59,20.60
2006,06,22,15,00,20.60
2006,06,22,15,01,20.70
2006,06,22,15,02,20.80
2006,06,22,15,03,20.80
2006,06,22,15,04,20.80
2006,06,22,15,05,20.70
2006,06,22,15,06,20.50
2006,06,22,15,07,20.40
2006,06,22,15,08,20.50
2006,06,22,15,09,20.60
2006,06,22,15,10,20.60
2006,06,22,15,11,20.70
2006,06,22,15,12,20.70
2006,06,22,15,13,20.80
2006,06,22,15,14,20.80
2006,06,22,15,15,20.90
2006,06,22,15,16,21.00
2006,06,22,15,17,21.10
2006,06,22,15,18,21.20
2006,06,22,15,19,21.10
2006,06,22,15,20,20.90
2006,06,22,15,21,20.80
2006,06,22,15,22,20.80
2006,06,22,15,23,20.80
2006,06,22,15,24,20.80
2006,06,22,15,25,20.80
2006,06,22,15,26,20.80
2006,06,22,15,27,20.90
2006,06,22,15,28,20.90
2006,06,22,15,29,20.90
2006,06,22,15,30,21.00
2006,06,22,15,31,21.00
2006,06,22,15,32,21.00
2006,06,22,15,33,21.00
2006,06,22,15,34,21.00
2006,06,22,15,35,21.10
2006,06,22,15,36,21.10
2006,06,22,15,37,21.20
2006,06,22,15,38,21.30
2006,06,22,15,39,21.40
2006,06,22,15,40,21.40
2006,06,22,15,41,21.40
2006,06,22,15,42,21.50
2006,06,22,15,43,21.50
2006,06,22,15,44,21.50
2006,06,22,15,45,21.50
2006,06,22,15,46,21.50
2006,06,22,15,47,21.50
2006,06,22,15,48,21.50
2006,06,22,15,49,21.50
2006,06,22,15,50,21.60
2006,06,22,15,51,21.60
2006,06,22,15,52,21.60
2006,06,22,15,53,21.60
2006,06,22,15,54,21.70
2006,06,22,15,55,21.70
2006,06,22,15,56,21.70
2006,06,22,15,57,21.60
2006,06,22,15,58,21.60
2006,06,22,15,59,21.50
2006,06,22,16,00,21.50
2006,06,22,16,01,21.40
2006,06,22,16,02,21.40
2006,06,22,16,03,21.30
2006,06,22,16,04,21.20
2006,06,22,16,05,21.20
2006,06,22,16,06,21.20
2006,06,22,16,07,21.20
2006,06,22,16,08,21.30
2006,06,22,16,09,21.40
2006,06,22,16,10,21.50
2006,06,22,16,11,21.50
2006,06,22,16,12,21.50
2006,06,22,16,13,21.50
2006,06,22,16,14,21.40
2006,06,22,16,15,21.30
2006,06,22,16,16,21.20
2006,06,22,16,17,21.10
2006,06,22,16,18,21.00
2006,06,22,16,19,20.80
2006,06,22,16,20,20.60
2006,06,22,16,21,20.40
2006,06,22,16,22,20.30
2006,06,22,16,23,20.20
2006,06,22,16,24,20.10
2006,06,22,16,25,20.20
2006,06,22,16,26,20.20
2006,06,22,16,27,20.20
2006,06,22,16,28,20.20
2006,06,22,16,29,20.20
2006,06,22,16,30,20.30
2006,06,22,16,31,20.40
2006,06,22,16,32,20.40
2006,06,22,16,33,20.50
2006,06,22,16,34,20.50
2006,06,22,16,35,20.30
2006,06,22,16,36,20.20
2006,06,22,16,37,20.20
2006,06,22,16,38,20.20
2006,06,22,16,39,20.10
2006,06,22,16,40,20.00
2006,06,22,16,41,19.90
2006,06,22,16,42,19.70
2006,06,22,16,43,19.60
2006,06,22,16,44,19.60
2006,06,22,16,45,19.60
2006,06,22,16,46,19.70
2006,06,22,16,47,19.60
2006,06,22,16,48,19.70
2006,06,22,16,49,19.60
2006,06,22,16,50,19.60
2006,06,22,16,51,19.50
2006,06,22,16,52,19.50
2006,06,22,16,53,19.40
2006,06,22,16,54,19.40
2006,06,22,16,55,19.40
2006,06,22,16,56,19.40
2006,06,22,16,57,19.40
2006,06,22,16,58,19.50
2006,06,22,16,59,19.50
2006,06,22,17,00,19.50
2006,06,22,17,01,19.50
2006,06,22,17,02,19.60
2006,06,22,17,03,19.60
2006,06,22,17,04,19.60
2006,06,22,17,05,19.60
2006,06,22,17,06,19.60
2006,06,22,17,07,19.70
2006,06,22,17,08,19.70
2006,06,22,17,09,19.60
2006,06,22,17,10,19.60
2006,06,22,17,11,19.50
2006,06,22,17,12,19.50
2006,06,22,17,13,19.50
2006,06,22,17,14,19.60
2006,06,22,17,15,19.60
2006,06,22,17,16,19.60
2006,06,22,17,17,19.50
2006,06,22,17,18,19.40
2006,06,22,17,19,19.30
2006,06,22,17,20,19.20
2006,06,22,17,21,19.20
2006,06,22,17,22,19.20
2006,06,22,17,23,19.10
2006,06,22,17,24,19.00
2006,06,22,17,25,19.10
2006,06,22,17,26,19.10
2006,06,22,17,27,19.20
2006,06,22,17,28,19.10
2006,06,22,17,29,19.10
2006,06,22,17,30,19.10
2006,06,22,17,31,19.10